Vorticity
6 6 5 6 7 7 6 7 6 5 3 3 5 6 6 8 11 8 6 6 5 4 2 5 5 6 5 5 5 7 7 8 8 8 14 14 15 10 6 -5 3 5 2 3
10 10 13 14 16 15 15 13 10 7 6 6 4 6 4 6 8 8 8 5 7 5 5 4 4 6 9 4 6 4 9 6 6 6 3 10 8 8 -1 17 11 -8 1 -0
16 22 25 29 29 30 28 26 22 18 14 18 8 9 7 4 6 7 6 7 8 7 5 5 3 4 8 6 6 6 6 7 7 7 -2 5 6 1 10 9 10 22 7 -4
21 26 23 18 15 12 17 25 26 31 41 20 27 17 24 8 6 6 7 5 7 11 8 5 4 -6 11 9 6 7 8 4 4 11 -31 2 2 4 2 2 10 4 27 22
11 9 7 1 5 6 3 1 0 2 7 28 12 29 32 19 17 14 10 7 8 7 11 8 6 6 1 3 7 4 2 4 5 10 38 6 2 6 5 3 12 6 5 49
6 7 8 9 12 11 11 11 9 10 7 -1 19 23 34 32 30 14 12 9 2 12 9 8 5 9 5 5 4 7 5 1 2 3 -2 1 3 5 4 3 2 2 -1 3
13 12 9 9 15 16 15 13 7 16 12 24 34 15 22 30 39 42 7 16 12 10 9 8 7 7 7 4 1 9 5 5 3 5 3 6 3 3 4 5 5 3 2 4
7 9 16 19 15 13 14 18 21 17 11 20 19 16 15 28 29 53 23 6 22 20 9 11 7 6 6 7 10 6 11 6 6 3 6 5 6 4 6 4 5 5 5 4
11 11 21 15 17 20 16 18 12 18 36 22 17 -1 29 31 42 30 11 12 15 16 9 11 12 4 11 12 6 6 4 6 13 4 7 2 5 5 5 3 6 -1 7 4
10 17 15 20 29 38 28 13 19 9 11 16 20 9 18 27 55 -12 38 28 10 19 10 9 10 13 8 16 13 11 15 5 9 3 9 9 4 6 6 7 6 7 13 6
13 12 9 40 20 34 23 16 7 17 7 9 3 -4 14 42 52 -22 24 22 17 13 8 8 2 3 5 9 12 -3 2 22 11 1 4 7 4 9 9 7 7 8 10 14
11 16 11 49 -7 6 10 -4 10 13 9 11 -4 19 46 34 24 1 10 58 18 -4 19 5 9 -6 11 -2 0 10 3 9 -13 13 7 6 11 4 10 7 8 7 16 6
9 11 15 26 -25 -7 -7 -4 -5 10 16 19 19 19 -7 26 29 4 -1 -10 26 34 1 11 -1 -3 8 1 -0 6 6 23 19 24 26 18 12 10 7 5 4 8 5 14
6 12 27 3 5 -1 -4 -5 5 13 22 12 6 10 19 40 40 -2 29 19 6 55 9 -8 18 11 -3 10 17 23 8 23 19 9 3 13 14 8 9 2 7 8 7 7
20 13 21 38 32 35 35 31 27 17 7 19 12 13 14 21 31 38 5 -28 10 20 30 46 35 22 24 11 18 14 10 17 23 20 7 16 16 11 9 7 5 -1 6 3
17 15 24 5 10 19 27 25 21 20 39 20 12 9 13 17 26 20 36 16 22 15 32 30 1 31 55 7 13 2 -12 -28 8 4 -6 2 20 14 10 6 3 4 5 3
2 1 5 6 9 9 7 33 22 21 16 30 18 14 8 14 12 24 13 13 4 6 2 16 -10 7 14 25 47 22 18 11 -10 21 2 1 -0 15 17 12 10 7 7 6
4 5 1 4 5 4 11 5 16 20 23 20 24 19 22 17 17 15 17 12 14 7 12 -3 11 33 -3 -7 -2 17 1 5 9 10 14 29 3 4 20 25 24 7 7 7
0 3 3 4 4 2 6 8 8 7 21 20 22 14 13 15 9 18 14 12 14 17 30 34 35 19 7 11 22 36 22 -16 -14 3 1 -5 30 8 -5 0 10 31 9 6
3 -2 4 1 4 10 5 5 9 7 10 8 14 17 18 12 12 16 12 17 26 33 37 30 26 34 20 29 40 50 54 34 20 20 21 12 8 15 20 15 9 18 20 10
-1 3 4 -2 2 6 13 12 9 6 -4 16 5 1 1 -4 16 17 13 18 10 4 6 4 14 32 45 36 13 23 31 30 42 52 33 22 25 30 14 3 15 -9 12 24
8 -1 0 -1 7 7 10 16 17 11 -3 10 14 15 14 4 4 5 3 2 4 4 0 5 -6 3 3 21 29 25 7 38 17 35 36 33 29 26 19 17 32 13 -2 -27
4 1 -3 22 20 14 6 17 15 10 7 3 7 11 -1 33 4 10 4 20 16 16 15 3 10 -3 -2 9 28 20 46 18 50 11 13 20 23 32 42 22 1 35 32 15
11 20 38 22 20 15 19 23 29 22 21 23 24 19 22 26 19 18 12 15 13 5 -3 -13 5 12 4 7 -4 8 24 52 17 18 18 28 35 29 23 40 29 22 24 15
16 15 28 32 32 36 38 30 21 19 20 20 17 17 18 21 25 32 30 32 36 34 32 32 27 20 11 1 12 7 0 7 21 18 15 11 35 14 32 16 23 18 22 12
34 25 20 15 13 19 16 16 15 12 10 8 6 6 8 8 10 12 14 13 12 14 15 18 22 28 43 37 21 19 20 21 -7 0 -1 4 16 18 6 -1 14 35 38 35
Height
5729 5728 5726 5726 5725 5724 5725 5726 5727 5727 5730 5736 5739 5741 5736 5740 5745 5747 5749 5755 5761 5766 5771 5779 5784 5788 5793 5798 5802 5807 5810 5813 5815 5819 5822 5827 5831 5833 5834 5838 5840 5843 5845 5848
5713 5711 5709 5708 5707 5706 5707 5708 5708 5709 5711 5714 5722 5725 5714 5721 5730 5735 5738 5741 5748 5756 5762 5769 5776 5781 5785 5789 5795 5798 5803 5806 5810 5813 5817 5821 5823 5824 5828 5832 5836 5838 5840 5842
5698 5696 5693 5690 5688 5687 5688 5688 5688 5689 5692 5692 5699 5703 5700 5703 5711 5719 5725 5730 5736 5743 5749 5756 5765 5772 5777 5783 5788 5793 5799 5798 5801 5804 5808 5814 5815 5818 5822 5826 5829 5831 5833 5836
5689 5687 5684 5681 5678 5677 5675 5674 5673 5671 5671 5675 5675 5678 5680 5686 5691 5699 5708 5715 5723 5731 5735 5742 5749 5756 5767 5772 5778 5786 5790 5789 5793 5794 5792 5805 5810 5814 5818 5819 5820 5825 5826 5828
5683 5680 5677 5675 5672 5671 5668 5665 5662 5660 5659 5658 5661 5654 5652 5664 5673 5681 5690 5698 5708 5716 5724 5728 5738 5744 5750 5756 5764 5773 5778 5780 5784 5787 5781 5793 5801 5807 5810 5812 5815 5817 5820 5820
5676 5674 5671 5667 5663 5660 5657 5655 5652 5650 5647 5646 5648 5638 5635 5640 5654 5663 5672 5681 5692 5702 5709 5716 5724 5735 5742 5748 5754 5762 5764 5767 5771 5775 5782 5787 5793 5799 5802 5804 5808 5811 5814 5815
5670 5666 5663 5658 5653 5648 5644 5643 5641 5638 5636 5634 5630 5624 5621 5627 5635 5647 5656 5665 5675 5687 5695 5703 5712 5722 5734 5740 5747 5753 5756 5758 5763 5770 5774 5781 5785 5788 5794 5798 5801 5804 5807 5810
5663 5660 5654 5648 5643 5639 5635 5633 5631 5628 5625 5624 5620 5613 5617 5618 5623 5632 5642 5654 5662 5674 5682 5691 5700 5709 5722 5732 5737 5742 5748 5753 5758 5762 5768 5772 5777 5781 5783 5788 5792 5797 5800 5804
5657 5653 5646 5641 5635 5630 5627 5626 5625 5621 5617 5616 5614 5612 5611 5611 5615 5622 5632 5643 5652 5663 5671 5679 5689 5697 5710 5722 5729 5734 5738 5744 5751 5754 5759 5763 5769 5774 5778 5780 5782 5787 5791 5794
5652 5646 5641 5634 5626 5623 5622 5623 5621 5618 5615 5612 5609 5606 5605 5604 5608 5612 5624 5633 5643 5652 5663 5671 5678 5688 5698 5709 5719 5725 5730 5735 5742 5746 5751 5755 5760 5765 5769 5773 5777 5779 5780 5784
5647 5642 5639 5633 5626 5622 5622 5620 5618 5615 5613 5609 5605 5602 5600 5597 5599 5604 5615 5622 5634 5645 5655 5664 5672 5680 5688 5697 5706 5714 5722 5727 5731 5735 5741 5747 5751 5756 5760 5765 5769 5772 5773 5776
5645 5641 5637 5634 5630 5627 5622 5621 5618 5614 5611 5606 5602 5598 5592 5591 5594 5601 5608 5616 5623 5633 5645 5657 5666 5673 5681 5687 5695 5703 5713 5718 5722 5725 5730 5736 5741 5747 5751 5755 5759 5761 5766 5768
5645 5640 5638 5635 5632 5628 5624 5620 5616 5612 5607 5603 5599 5595 5592 5591 5592 5600 5604 5613 5615 5627 5637 5648 5658 5666 5671 5677 5684 5692 5700 5708 5713 5716 5720 5724 5730 5735 5739 5743 5747 5751 5755 5759
5647 5641 5638 5636 5631 5628 5623 5618 5613 5608 5604 5601 5597 5593 5590 5587 5589 5597 5605 5609 5615 5622 5632 5642 5651 5657 5663 5668 5675 5681 5686 5694 5700 5706 5710 5713 5717 5721 5726 5731 5736 5741 5744 5748
5650 5645 5641 5636 5632 5626 5620 5615 5610 5604 5600 5598 5596 5592 5591 5590 5597 5600 5607 5613 5618 5624 5632 5636 5646 5653 5658 5662 5668 5673 5677 5683 5688 5691 5697 5701 5705 5711 5715 5719 5723 5727 5732 5737
5653 5649 5644 5639 5633 5625 5618 5613 5608 5604 5598 5596 5595 5593 5590 5594 5600 5608 5614 5618 5620 5626 5628 5634 5643 5649 5650 5653 5658 5664 5668 5673 5677 5680 5684 5689 5692 5697 5703 5707 5712 5717 5721 5724
5655 5652 5647 5641 5636 5629 5624 5617 5611 5606 5603 5599 5598 5597 5596 5597 5601 5608 5615 5620 5624 5627 5631 5635 5640 5641 5642 5648 5652 5654 5658 5661 5663 5667 5672 5676 5679 5683 5687 5693 5699 5705 5709 5713
5657 5653 5649 5644 5640 5636 5630 5623 5618 5613 5609 5605 5604 5603 5603 5602 5603 5605 5607 5615 5620 5625 5628 5630 5633 5635 5640 5643 5645 5645 5645 5646 5649 5653 5656 5661 5666 5670 5675 5679 5685 5690 5695 5700
5659 5655 5652 5648 5643 5641 5636 5631 5626 5621 5618 5614 5612 5610 5611 5611 5612 5614 5617 5619 5620 5620 5622 5626 5631 5632 5633 5634 5631 5628 5629 5632 5634 5637 5641 5646 5651 5656 5662 5668 5673 5677 5682 5688
5662 5659 5656 5651 5647 5643 5640 5637 5633 5629 5624 5621 5619 5618 5617 5618 5618 5619 5620 5621 5623 5622 5623 5626 5625 5624 5625 5624 5622 5618 5613 5610 5612 5616 5620 5627 5635 5642 5647 5654 5661 5665 5670 5675
5664 5661 5658 5654 5650 5646 5642 5640 5637 5634 5635 5629 5626 5624 5621 5621 5622 5622 5622 5623 5623 5623 5623 5623 5622 5619 5616 5614 5613 5608 5602 5594 5593 5598 5606 5612 5618 5627 5635 5640 5647 5653 5657 5662
5668 5664 5660 5657 5651 5648 5644 5641 5640 5638 5635 5634 5632 5630 5628 5626 5624 5624 5623 5623 5623 5623 5623 5621 5619 5617 5613 5610 5606 5602 5596 5590 5587 5591 5595 5600 5606 5613 5620 5626 5631 5638 5644 5649
5669 5665 5661 5658 5653 5648 5644 5642 5639 5638 5637 5637 5636 5634 5632 5630 5628 5627 5626 5625 5625 5625 5624 5622 5620 5617 5614 5609 5603 5596 5592 5589 5587 5588 5590 5593 5599 5604 5608 5614 5620 5625 5631 5639
5667 5664 5660 5655 5652 5648 5645 5643 5641 5639 5640 5638 5637 5635 5633 5631 5630 5629 5629 5627 5626 5625 5624 5621 5619 5616 5612 5608 5604 5599 5594 5590 5588 5587 5587 5589 5594 5597 5600 5605 5609 5614 5622 5629
5669 5667 5662 5657 5653 5650 5648 5646 5645 5645 5645 5643 5641 5638 5637 5635 5633 5631 5630 5629 5627 5625 5623 5620 5618 5615 5613 5609 5604 5601 5599 5597 5595 5594 5595 5596 5595 5596 5599 5601 5604 5608 5614 5620
5673 5671 5669 5664 5662 5661 5658 5656 5655 5653 5652 5650 5648 5646 5644 5641 5640 5638 5635 5633 5630 5628 5626 5623 5620 5616 5613 5609 5606 5604 5602 5600 5599 5598 5597 5596 5595 5596 5598 5600 5601 5603 5606 5609